DAL1386 KMIA-KATL

Flight info

Callsign DAL1386
Flight time N/A
Altitude 34000
Route FLMGO2 STYMY Q77 MJAMS/N0449F330 Q77 SHRKS/N0449F340 LAIRI LARZZ JJEDI4
Aircraft MD88/M-SDFGIRWY/S

Departure

Time 2026-05-07 23:37
Airport Miami International Airport (KMIA)

Arrival

Time N/A
Airport Hartsfield Jackson Atlanta International Airport (KATL)
Time Latitude Longitude Altitude Speed Heading
2026-05-07 22:46 25.79180 -80.27712 22 ft 0 kts 102°
2026-05-07 23:25 25.79184 -80.27731 26 ft 2 kts 106°
2026-05-07 23:25 25.79194 -80.27754 22 ft 4 kts 137°
2026-05-07 23:25 25.79214 -80.27763 24 ft 4 kts 181°
2026-05-07 23:26 25.79236 -80.27761 21 ft 0 kts 187°
2026-05-07 23:30 25.79234 -80.27761 21 ft 2 kts 187°
2026-05-07 23:30 25.79197 -80.27764 22 ft 8 kts 185°
2026-05-07 23:30 25.79135 -80.27770 24 ft 9 kts 185°
2026-05-07 23:30 25.79073 -80.27784 23 ft 9 kts 205°
2026-05-07 23:31 25.79029 -80.27805 22 ft 0 kts 202°
2026-05-07 23:31 25.79023 -80.27808 22 ft 5 kts 202°
2026-05-07 23:32 25.78964 -80.27839 21 ft 12 kts 218°
2026-05-07 23:32 25.78944 -80.27916 23 ft 10 kts 274°
2026-05-07 23:32 25.78985 -80.28013 23 ft 19 kts 298°
2026-05-07 23:32 25.79055 -80.28151 23 ft 20 kts 299°
2026-05-07 23:33 25.79129 -80.28285 23 ft 21 kts 300°
2026-05-07 23:33 25.79214 -80.28407 20 ft 19 kts 319°
2026-05-07 23:33 25.79285 -80.28533 18 ft 20 kts 297°
2026-05-07 23:33 25.79355 -80.28673 16 ft 22 kts 299°
2026-05-07 23:34 25.79431 -80.28822 16 ft 22 kts 300°
2026-05-07 23:34 25.79507 -80.28969 17 ft 22 kts 300°
2026-05-07 23:34 25.79582 -80.29116 19 ft 21 kts 300°
2026-05-07 23:34 25.79655 -80.29258 20 ft 21 kts 299°
2026-05-07 23:35 25.79730 -80.29406 18 ft 22 kts 299°
2026-05-07 23:35 25.79808 -80.29560 16 ft 24 kts 300°
2026-05-07 23:35 25.79892 -80.29727 16 ft 25 kts 295°
2026-05-07 23:35 25.79964 -80.29907 12 ft 26 kts 289°
2026-05-07 23:36 25.80011 -80.30091 15 ft 12 kts 295°
2026-05-07 23:36 25.80066 -80.30102 15 ft 7 kts 52°
2026-05-07 23:36 25.80077 -80.30027 13 ft 14 kts 88°
2026-05-07 23:36 25.80086 -80.29764 14 ft 61 kts 87°
2026-05-07 23:37 25.80114 -80.29055 21 ft 122 kts 87°
2026-05-07 23:37 25.80175 -80.27922 108 ft 165 kts 85°
2026-05-07 23:37 25.80276 -80.26573 682 ft 182 kts 88°
2026-05-07 23:37 25.80322 -80.25107 1268 ft 197 kts 94°
2026-05-07 23:38 25.80355 -80.23531 1895 ft 212 kts 89°
2026-05-07 23:38 25.80412 -80.21892 2422 ft 220 kts 89°
2026-05-07 23:38 25.80480 -80.20140 2788 ft 241 kts 85°
2026-05-07 23:38 25.80876 -80.18340 3588 ft 234 kts 62°
2026-05-07 23:39 25.81740 -80.16854 4398 ft 235 kts 44°
2026-05-07 23:39 25.83050 -80.15670 4792 ft 251 kts 26°
2026-05-07 23:39 25.84728 -80.14972 5172 ft 266 kts
2026-05-07 23:39 25.86563 -80.15008 5550 ft 273 kts 353°
2026-05-07 23:40 25.88463 -80.15202 6295 ft 275 kts 354°
2026-05-07 23:40 25.90369 -80.15546 6938 ft 280 kts 342°
2026-05-07 23:40 25.92212 -80.16271 7650 ft 283 kts 338°
2026-05-07 23:40 25.94046 -80.17076 8331 ft 285 kts 338°
2026-05-07 23:41 25.95941 -80.17885 8935 ft 291 kts 339°
2026-05-07 23:41 25.97854 -80.18670 9510 ft 296 kts 339°
2026-05-07 23:41 25.99661 -80.19767 10065 ft 300 kts 321°
2026-05-07 23:41 26.01269 -80.21330 10298 ft 316 kts 316°
2026-05-07 23:42 26.02922 -80.23045 10470 ft 333 kts 316°
2026-05-07 23:42 26.04656 -80.24845 10643 ft 349 kts 316°
2026-05-07 23:42 26.06449 -80.26701 10794 ft 364 kts 316°
2026-05-07 23:42 26.08345 -80.28640 11079 ft 374 kts 317°
2026-05-07 23:43 26.10278 -80.30584 11672 ft 375 kts 317°
2026-05-07 23:43 26.12224 -80.32517 12282 ft 375 kts 317°
2026-05-07 23:43 26.14183 -80.34450 12805 ft 378 kts 318°
2026-05-07 23:43 26.16156 -80.36388 13351 ft 380 kts 318°
2026-05-07 23:44 26.18145 -80.38339 13943 ft 381 kts 317°
2026-05-07 23:44 26.20132 -80.40299 14504 ft 382 kts 317°
2026-05-07 23:44 26.22126 -80.42264 15047 ft 384 kts 319°
2026-05-07 23:44 26.24361 -80.43903 15529 ft 389 kts 331°
2026-05-07 23:45 26.26818 -80.45225 15767 ft 395 kts 334°
2026-05-07 23:45 26.29321 -80.46486 15871 ft 393 kts 334°
2026-05-07 23:45 26.31809 -80.47735 15927 ft 392 kts 334°
2026-05-07 23:45 26.34303 -80.48995 16027 ft 397 kts 334°
2026-05-07 23:46 26.36817 -80.50282 16678 ft 396 kts 333°
2026-05-07 23:46 26.39303 -80.51574 17458 ft 393 kts 333°
2026-05-07 23:46 26.41780 -80.52877 18065 ft 395 kts 332°
2026-05-07 23:46 26.44269 -80.54203 18557 ft 398 kts 332°
2026-05-07 23:47 26.46774 -80.55543 19010 ft 401 kts 332°
2026-05-07 23:47 26.49338 -80.56807 19475 ft 405 kts 338°
2026-05-07 23:47 26.52036 -80.57755 19978 ft 408 kts 341°
2026-05-07 23:47 26.54788 -80.58590 20443 ft 411 kts 342°
2026-05-07 23:48 26.57566 -80.59409 20889 ft 414 kts 341°
2026-05-07 23:48 26.60357 -80.60237 21367 ft 416 kts 341°
2026-05-07 23:48 26.63157 -80.61087 21824 ft 418 kts 340°
2026-05-07 23:48 26.65970 -80.61962 22233 ft 421 kts 340°
2026-05-07 23:49 26.68802 -80.62861 22656 ft 424 kts 340°
2026-05-07 23:49 26.71645 -80.63774 23083 ft 426 kts 339°
2026-05-07 23:49 26.74504 -80.64693 23519 ft 429 kts 339°
2026-05-07 23:49 26.77375 -80.65617 23886 ft 431 kts 339°
2026-05-07 23:50 26.80262 -80.66547 24216 ft 433 kts 339°
2026-05-07 23:50 26.83129 -80.67467 24547 ft 436 kts 339°
2026-05-07 23:50 26.86048 -80.68402 24923 ft 437 kts 340°
2026-05-07 23:50 26.88979 -80.69335 25305 ft 439 kts 339°
2026-05-07 23:51 26.91924 -80.70285 25689 ft 440 kts 338°
2026-05-07 23:51 26.94845 -80.71330 26036 ft 442 kts 336°
2026-05-07 23:51 26.97761 -80.72454 26357 ft 444 kts 336°
2026-05-07 23:51 27.00679 -80.73600 26700 ft 446 kts 336°
2026-05-07 23:52 27.03606 -80.74745 27131 ft 445 kts 336°
2026-05-07 23:52 27.06526 -80.75873 27664 ft 443 kts 336°
2026-05-07 23:52 27.09433 -80.76983 28207 ft 440 kts 336°
2026-05-07 23:52 27.12329 -80.78080 28707 ft 438 kts 336°
2026-05-07 23:53 27.15215 -80.79171 29159 ft 438 kts 336°
2026-05-07 23:53 27.18100 -80.80261 29619 ft 437 kts 336°
2026-05-07 23:53 27.20977 -80.81347 30073 ft 435 kts 336°
2026-05-07 23:53 27.23846 -80.82432 30419 ft 435 kts 336°
2026-05-07 23:54 27.26705 -80.83517 30782 ft 433 kts 336°
2026-05-07 23:54 27.29558 -80.84599 31165 ft 431 kts 336°
2026-05-07 23:54 27.32393 -80.85679 31530 ft 430 kts 336°
2026-05-07 23:54 27.35211 -80.86793 31834 ft 429 kts 335°
2026-05-07 23:55 27.38006 -80.87947 32164 ft 427 kts 334°
2026-05-07 23:55 27.40786 -80.89113 32504 ft 426 kts 334°
2026-05-07 23:55 27.43561 -80.90277 32845 ft 424 kts 334°
2026-05-07 23:55 27.46321 -80.91429 33147 ft 424 kts 334°
2026-05-07 23:56 27.49092 -80.92577 33375 ft 425 kts 334°
2026-05-07 23:56 27.51867 -80.93721 33630 ft 425 kts 335°
2026-05-07 23:56 27.54641 -80.94862 33808 ft 426 kts 334°
2026-05-07 23:56 27.57424 -80.96007 33904 ft 426 kts 334°
2026-05-07 23:57 27.62008 -80.97888 33945 ft 409 kts 334°